Location: Pinon Hills
(34.4429°N, 117.6403°W)
Time: 01:31:08
(UTC-07:00)

Uosat F - Visible Passes

Search period start: 26 October 2014 00:00
Search period end: 04 November 2014 23:00
Orbit: 752 x 761 km, 98.7° (Epoch: 25 October)

Date Brightness Start Highest point End Pass type
(mag) Time Alt. Az. Time Alt. Az. Time Alt. Az.
26 Oct 11.7 05:01:58 10° NNE 05:06:55 55° E 05:11:51 10° S visible
27 Oct 13.4 04:23:46 10° NE 04:27:36 22° E 04:31:25 10° SE visible
27 Oct 11.6 06:01:50 10° N 06:06:25 36° WNW 06:10:58 10° SW visible
28 Oct 11.0 05:22:21 10° NNE 05:27:25 90° ESE 05:32:27 10° SSW visible
29 Oct 12.6 04:43:37 10° NNE 04:48:13 35° E 04:52:46 10° SSE visible
29 Oct 12.2 06:22:51 10° NNW 06:26:45 23° WNW 06:30:37 10° WSW visible
30 Oct 14.0 04:06:21 10° ENE 04:08:47 13° E 04:11:12 10° ESE visible
30 Oct 11.1 05:42:55 10° N 05:47:51 56° WNW 05:52:46 10° SSW visible
31 Oct 11.6 05:03:47 10° NNE 05:08:45 57° E 05:13:41 10° S visible
01 Nov 13.3 04:25:32 10° NE 04:29:26 22° E 04:33:18 10° SE visible
01 Nov 11.6 06:03:41 10° N 06:08:14 35° WNW 06:12:45 10° SW visible
02 Nov 11.0 04:24:10 10° NNE 04:29:14 88° WNW 04:34:16 10° SSW visible
03 Nov 12.5 03:45:24 10° NNE 03:50:01 36° E 03:54:36 10° SSE visible
03 Nov 12.2 05:24:42 10° NNW 05:28:32 22° WNW 05:32:21 10° WSW visible
04 Nov 13.9 03:08:03 10° ENE 03:10:36 14° E 03:13:08 10° ESE visible
04 Nov 11.1 04:44:44 10° N 04:49:39 54° WNW 04:54:32 10° SSW visible
